EW4993 Weather Reports


time (UTC)temp
F
wind
direction
speed
knots
gust
knots
rain 1hr
in
rain 24hr
in
rain mn
in
humidity
%
barometer
mb
20260506044634 74 184 5.2 10.4 0.00 0.00 0.00 75 982.9
20260506043028 74 201 4.3 8.7 0.00 0.00 0.00 75 982.9
20260506041524 74 213 5.2 8.7 0.00 0.00 0.00 75 982.7
20260506040028 74 198 4.3 7.0 0.00 0.00 0.00 76 982.6
20260506034542 74 190 2.6 6.1 0.00 0.00 0.00 76 982.6
20260506033017 74 199 4.3 8.7 0.00 0.00 0.00 77 982.3
20260506031516 74 194 2.6 5.2 0.00 0.00 0.00 78 982.2
20260506030011 75 186 2.6 6.1 0.00 0.00 0.00 79 981.9
20260506024509 75 191 2.6 7.8 0.00 0.00 0.00 80 981.7
20260506023107 75 187 3.5 7.0 0.00 0.00 0.00 80 981.3
20260506021547 76 194 2.6 6.1 0.00 0.00 0.00 81 981.0
20260506020027 76 191 1.7 4.3 0.00 0.00 0.00 81 981.0
20260506014529 76 198 2.6 7.0 0.00 0.00 0.00 81 980.8
20260506013013 77 192 1.7 7.8 0.00 0.00 0.00 82 980.7
20260506011514 78 186 2.6 7.8 0.00 0.00 0.00 81 980.6
20260506010007 78 192 2.6 7.8 0.00 0.00 0.00 81 980.6
20260506004505 79 190 3.5 7.8 0.00 0.00 0.00 80 980.6
20260506003002 80 198 2.6 6.1 0.00 0.00 0.00 80 980.6
20260506001600 80 197 3.5 7.0 0.00 0.00 0.00 79 980.7
20260506000058 80 208 5.2 8.7 0.00 0.00 0.00 78 980.7
20260505234635 81 210 4.3 9.6 0.00 0.00 0.00 77 980.7
20260505233039 81 242 6.1 9.6 0.00 0.00 0.00 76 980.5
20260505231536 81 196 3.5 7.0 0.00 0.00 0.00 77 980.5
20260505230014 81 185 5.2 11.3 0.00 0.00 0.00 75 980.2
20260505224512 82 229 5.2 9.6 0.00 0.00 0.00 75 980.3
20260505223057 82 185 6.1 10.4 0.00 0.00 0.00 75 980.3
20260505221555 81 215 7.8 13.0 0.00 0.00 0.00 75 980.1
20260505220051 82 177 7.0 13.0 0.00 0.00 0.00 74 980.3
20260505214539 82 225 7.8 12.2 0.00 0.00 0.00 73 980.4
20260505213014 83 233 7.8 16.5 0.00 0.00 0.00 73 980.6
20260505211511 82 220 8.7 16.5 0.00 0.00 0.00 73 980.8
20260505210052 82 244 10.4 15.6 0.00 0.00 0.00 74 981.0
20260505204550 82 221 8.7 17.4 0.00 0.00 0.00 75 981.1
20260505203031 81 210 9.6 16.5 0.00 0.00 0.00 76 981.3
20260505201531 81 206 9.6 14.8 0.00 0.00 0.00 76 981.6
20260505200012 81 230 7.0 16.5 0.00 0.00 0.00 77 981.6
20260505194527 80 196 8.7 13.9 0.00 0.00 0.00 76 981.8
20260505193055 80 219 7.8 14.8 0.00 0.00 0.00 76 982.0
20260505191556 80 206 8.7 14.8 0.00 0.00 0.00 76 982.0
20260505190030 79 247 8.7 13.9 0.00 0.00 0.00 77 982.1
20260505184529 79 251 8.7 14.8 0.00 0.00 0.00 79 982.4
20260505183013 78 249 8.7 15.6 0.00 0.00 0.00 78 982.6
20260505181510 77 232 8.7 13.9 0.00 0.00 0.00 80 982.9
20260505180058 76 248 7.8 13.9 0.00 0.00 0.00 81 983.0
20260505174609 76 241 8.7 15.6 0.00 0.00 0.00 81 983.1
20260505173034 75 227 8.7 14.8 0.00 0.00 0.00 81 983.1
20260505171535 75 237 7.8 11.3 0.00 0.00 0.00 81 983.3
20260505170023 74 242 9.6 13.9 0.00 0.00 0.00 82 983.3
20260505164518 73 257 7.8 14.8 0.00 0.00 0.00 82 983.3
20260505163056 73 241 9.6 13.0 0.00 0.00 0.00 81 983.3
20260505161603 73 244 9.6 14.8 0.00 0.00 0.00 81 983.4
20260505153023 73 250 12.2 20.0 0.00 0.00 0.00 81 983.2
20260505151519 72 244 10.4 15.6 0.00 0.00 0.00 80 983.1
20260505124547 70 232 7.0 13.0 0.00 0.00 0.00 78 982.3
20260505123105 70 226 7.0 12.2 0.00 0.00 0.00 79 982.0
20260505121528 70 247 5.2 9.6 0.00 0.00 0.00 79 981.7
20260505120030 69 244 6.1 13.0 0.00 0.00 0.00 79 981.6
20260505114510 69 224 6.1 13.0 0.00 0.00 0.00 79 981.5
20260505113009 69 229 7.0 12.2 0.00 0.00 0.00 79 981.5
20260505111604 69 217 7.8 16.5 0.00 0.00 0.00 80 981.4
20260505101510 69 225 7.0 12.2 0.00 0.00 0.00 81 981.5
20260505100009 69 219 7.0 15.6 0.00 0.00 0.00 81 981.7
20260505094551 70 237 7.0 13.0 0.00 0.00 0.00 80 981.8
20260505093050 70 213 7.0 14.8 0.00 0.00 0.00 80 981.8
20260505091534 70 232 7.8 14.8 0.00 0.00 0.00 80 982.0
20260505090034 70 240 9.6 17.4 0.00 0.00 0.00 80 982.1
20260505084517 70 215 7.8 13.9 0.00 0.00 0.00 80 982.1
20260505083013 70 204 10.4 17.4 0.00 0.00 0.00 80 982.2
20260505081553 70 248 11.3 15.6 0.00 0.00 0.00 81 982.5
20260505080045 70 240 8.7 15.6 0.00 0.00 0.00 81 982.4
20260505074526 70 241 8.7 16.5 0.00 0.00 0.00 81 982.6
20260505073023 70 249 7.0 20.0 0.00 0.00 0.00 81 982.7
20260505071503 70 188 8.7 16.5 0.00 0.00 0.00 81 982.9
20260505070002 70 223 9.6 20.9 0.00 0.00 0.00 80 983.0
20260505064555 69 216 9.6 16.5 0.00 0.00 0.00 80 983.0
20260505063043 69 224 9.6 13.0 0.00 0.00 0.00 80 983.2
20260505061529 69 218 7.0 14.8 0.00 0.00 0.00 81 983.5
20260505060021 69 222 9.6 16.5 0.00 0.00 0.00 80 983.5
20260505054605 69 237 7.8 16.5 0.00 0.00 0.00 80 983.5
20260505053110 69 213 8.7 13.0 0.00 0.00 0.00 80 983.4
20260505051537 69 223 7.0 11.3 0.00 0.00 0.00 81 983.4